QPF
0.12 0.13 0.12 0.10 0.07 0.08 0.10 0.09 0.07 0.08 0.09 0.07 0.04 0.02 0.01 0.00 0.01 0.03 0.06 0.05 0.02 0.02 0.03 0.05 0.05 0.04 0.05 0.05 0.06 0.06 0.06 0.04 0.05 0.05 0.03 0.02 0.02 0.02 0.01 0.01 0.01 0.01 0.01
0.08 0.08 0.08 0.09 0.08 0.07 0.08 0.09 0.08 0.08 0.09 0.09 0.06 0.04 0.02 0.02 0.02 0.02 0.05 0.07 0.03 0.01 0.02 0.04 0.07 0.07 0.05 0.05 0.06 0.07 0.07 0.06 0.06 0.06 0.05 0.04 0.03 0.02 0.03 0.02 0.01 0.01 0.01
0.06 0.05 0.07 0.07 0.06 0.05 0.06 0.06 0.06 0.08 0.10 0.11 0.10 0.07 0.06 0.06 0.04 0.03 0.04 0.06 0.05 0.03 0.02 0.03 0.05 0.07 0.07 0.07 0.07 0.10 0.08 0.07 0.07 0.07 0.06 0.05 0.04 0.03 0.03 0.02 0.02 0.01 0.01
0.04 0.05 0.07 0.07 0.06 0.05 0.04 0.04 0.05 0.06 0.08 0.12 0.13 0.07 0.07 0.06 0.03 0.03 0.02 0.03 0.05 0.06 0.05 0.04 0.03 0.03 0.06 0.08 0.11 0.12 0.11 0.10 0.09 0.08 0.07 0.06 0.05 0.05 0.04 0.03 0.02 0.01 0.01
0.03 0.05 0.05 0.06 0.04 0.03 0.03 0.03 0.05 0.06 0.07 0.09 0.07 0.05 0.04 0.04 0.03 0.02 0.02 0.03 0.03 0.03 0.05 0.06 0.04 0.04 0.05 0.06 0.09 0.11 0.14 0.17 0.16 0.14 0.13 0.10 0.09 0.07 0.05 0.05 0.04 0.02 0.01
0.03 0.03 0.03 0.03 0.02 0.02 0.02 0.03 0.03 0.03 0.04 0.04 0.03 0.03 0.02 0.01 0.02 0.02 0.02 0.03 0.02 0.01 0.02 0.05 0.07 0.05 0.04 0.04 0.07 0.09 0.14 0.17 0.18 0.17 0.16 0.13 0.10 0.08 0.07 0.06 0.05 0.03 0.02
0.02 0.02 0.01 0.01 0.01 0.01 0.01 0.02 0.02 0.02 0.02 0.02 0.02 0.02 0.01 0.01 0.01 0.01 0.01 0.01 0.01 0.01 0.02 0.04 0.06 0.07 0.05 0.04 0.04 0.07 0.10 0.14 0.16 0.16 0.15 0.14 0.11 0.10 0.09 0.08 0.07 0.05 0.03
0.01 0.01 0.02 0.01 0.01 0.01 0.01 0.01 0.01 0.02 0.02 0.01 0.01 0.01 0.01 0.02 0.02 0.01 0.00 0.00 0.01 0.01 0.02 0.03 0.04 0.06 0.06 0.08 0.06 0.05 0.08 0.11 0.14 0.16 0.15 0.15 0.14 0.12 0.11 0.10 0.08 0.07 0.05
0.01 0.01 0.01 0.01 0.01 0.00 0.01 0.01 0.01 0.01 0.01 0.01 0.01 0.01 0.01 0.02 0.03 0.02 0.01 0.00 0.00 0.01 0.02 0.03 0.04 0.06 0.06 0.08 0.08 0.07 0.08 0.08 0.11 0.15 0.17 0.16 0.13 0.11 0.10 0.10 0.10 0.08 0.07
0.01 0.00 0.00 0.00 0.00 0.00 0.01 0.01 0.01 0.01 0.01 0.02 0.01 0.01 0.01 0.01 0.02 0.02 0.01 0.01 0.00 0.00 0.01 0.01 0.02 0.03 0.04 0.06 0.07 0.05 0.05 0.05 0.07 0.11 0.14 0.16 0.14 0.11 0.09 0.10 0.12 0.12 0.10
0.01 0.00 0.00 0.00 0.01 0.01 0.01 0.01 0.02 0.02 0.01 0.01 0.01 0.01 0.01 0.01 0.01 0.01 0.02 0.02 0.01 0.00 0.00 0.00 0.00 0.01 0.01 0.03 0.04 0.04 0.03 0.03 0.04 0.06 0.09 0.12 0.14 0.13 0.11 0.09 0.11 0.14 0.13
0.01 0.00 0.00 0.01 0.01 0.01 0.02 0.02 0.02 0.02 0.01 0.01 0.01 0.00 0.00 0.01 0.01 0.01 0.01 0.01 0.01 0.00 0.00 0.00 0.00 0.00 0.01 0.01 0.01 0.01 0.01 0.02 0.02 0.02 0.03 0.06 0.09 0.11 0.11 0.11 0.12 0.15 0.16
0.01 0.01 0.01 0.01 0.01 0.01 0.01 0.01 0.02 0.02 0.01 0.01 0.01 0.00 0.00 0.00 0.00 0.00 0.00 0.00 0.00 0.00 0.00 0.00 0.00 0.00 0.00 0.01 0.01 0.00 0.00 0.00 0.00 0.00 0.01 0.02 0.04 0.06 0.08 0.09 0.11 0.13 0.15
0.01 0.00 0.01 0.01 0.01 0.01 0.01 0.01 0.01 0.01 0.01 0.01 0.01 0.00 0.00 0.00 0.00 0.00 0.00 0.00 0.00 0.00 0.00 0.00 0.00 0.00 0.00 0.01 0.01 0.00 0.00 0.00 0.00 0.00 0.00 0.00 0.01 0.02 0.04 0.04 0.06 0.07 0.09
0.01 0.01 0.01 0.01 0.01 0.01 0.01 0.01 0.01 0.00 0.00 0.01 0.01 0.00 0.00 0.00 0.00 0.00 0.00 0.00 0.00 0.00 0.00 0.00 0.00 0.00 0.00 0.00 0.00 0.01 0.01 0.01 0.00 0.00 0.00 0.00 0.00 0.01 0.02 0.02 0.02 0.03 0.04
0.01 0.01 0.01 0.01 0.01 0.00 0.00 0.00 0.01 0.00 0.00 0.01 0.01 0.00 0.00 0.00 0.00 0.00 0.00 0.00 0.00 0.00 0.00 0.00 0.00 0.00 0.00 0.00 0.00 0.00 0.00 0.00 0.00 0.00 0.00 0.00 0.00 0.00 0.00 0.00 0.01 0.01 0.02
0.02 0.02 0.01 0.01 0.01 0.00 0.00 0.00 0.00 0.01 0.01 0.01 0.01 0.00 0.00 0.00 0.01 0.00 0.00 0.00 0.00 0.00 0.00 0.00 0.00 0.00 0.00 0.00 0.01 0.00 0.00 0.00 0.00 0.00 0.00 0.00 0.00 0.00 0.00 0.00 0.00 0.00 0.00
0.02 0.02 0.01 0.01 0.00 0.00 0.00 0.00 0.00 0.00 0.00 0.00 0.00 0.00 0.01 0.01 0.01 0.01 0.01 0.01 0.01 0.01 0.01 0.01 0.00 0.00 0.01 0.01 0.01 0.01 0.00 0.00 0.00 0.00 0.00 0.00 0.00 0.00 0.00 0.00 0.00 0.00 0.00
0.01 0.01 0.00 0.00 0.00 0.00 0.00 0.00 0.00 0.00 0.00 0.00 0.00 0.00 0.00 0.00 0.01 0.02 0.02 0.01 0.01 0.01 0.01 0.01 0.01 0.01 0.01 0.00 0.01 0.01 0.00 0.00 0.00 0.00 0.00 0.00 0.00 0.00 0.00 0.00 0.00 0.00 0.00
0.00 0.00 0.00 0.00 0.00 0.00 0.00 0.00 0.00 0.00 0.00 0.00 0.00 0.00 0.00 0.00 0.01 0.01 0.02 0.02 0.01 0.01 0.01 0.01 0.01 0.01 0.01 0.00 0.01 0.01 0.01 0.01 0.00 0.00 0.00 0.00 0.00 0.00 0.00 0.00 0.00 0.00 0.00
0.01 0.00 0.00 0.00 0.00 0.00 0.00 0.00 0.00 0.00 0.00 0.00 0.00 0.00 0.00 0.00 0.00 0.01 0.01 0.01 0.01 0.01 0.01 0.01 0.01 0.01 0.01 0.01 0.02 0.02 0.01 0.01 0.01 0.00 0.00 0.00 0.00 0.00 0.00 0.00 0.00 0.00 0.00
0.02 0.01 0.00 0.00 0.00 0.00 0.00 0.01 0.00 0.00 0.00 0.01 0.01 0.01 0.01 0.00 0.00 0.00 0.00 0.00 0.00 0.00 0.01 0.01 0.01 0.01 0.01 0.01 0.02 0.02 0.01 0.02 0.01 0.00 0.01 0.01 0.00 0.01 0.01 0.01 0.00 0.00 0.00
0.04 0.03 0.02 0.01 0.01 0.01 0.01 0.01 0.00 0.00 0.00 0.00 0.01 0.01 0.01 0.00 0.01 0.01 0.01 0.01 0.00 0.00 0.00 0.00 0.00 0.00 0.00 0.01 0.03 0.02 0.03 0.03 0.02 0.01 0.02 0.01 0.00 0.01 0.00 0.00 0.01 0.01 0.00
0.06 0.05 0.04 0.03 0.03 0.02 0.03 0.02 0.01 0.00 0.00 0.00 0.01 0.02 0.02 0.02 0.02 0.03 0.02 0.02 0.01 0.01 0.01 0.01 0.00 0.00 0.01 0.02 0.03 0.02 0.02 0.02 0.01 0.00 0.01 0.00 0.00 0.01 0.00 0.01 0.01 0.01 0.01
0.08 0.07 0.07 0.06 0.06 0.07 0.08 0.03 0.01 0.00 0.00 0.00 0.01 0.02 0.03 0.03 0.03 0.02 0.02 0.01 0.01 0.01 0.00 0.00 0.00 0.00 0.00 0.00 0.01 0.01 0.01 0.01 0.01 0.00 0.01 0.01 0.00 0.01 0.01 0.01 0.01 0.01 0.01
0.13 0.12 0.10 0.08 0.07 0.07 0.08 0.04 0.02 0.01 0.01 0.02 0.02 0.02 0.01 0.01 0.01 0.01 0.02 0.03 0.02 0.01 0.02 0.02 0.02 0.01 0.00 0.00 0.00 0.00 0.00 0.01 0.01 0.00 0.01 0.02 0.01 0.02 0.02 0.00 0.01 0.01 0.01
MSLP
1016.35 1016.61 1016.79 1016.90 1016.97 1017.03 1017.09 1017.16 1017.23 1017.29 1017.31 1017.28 1017.22 1017.15 1017.09 1017.09 1017.16 1017.34 1017.62 1017.97 1018.37 1018.76 1019.13 1019.43 1019.68 1019.86 1020.01 1020.14 1020.27 1020.42 1020.61 1020.82 1021.07 1021.33 1021.60 1021.88 1022.15 1022.40 1022.64 1022.84 1023.03 1023.20 1023.34
1016.26 1016.51 1016.69 1016.80 1016.88 1016.94 1017.01 1017.09 1017.17 1017.25 1017.31 1017.33 1017.32 1017.29 1017.26 1017.25 1017.30 1017.43 1017.65 1017.92 1018.25 1018.60 1018.95 1019.27 1019.53 1019.76 1019.93 1020.08 1020.22 1020.35 1020.50 1020.67 1020.88 1021.11 1021.38 1021.66 1021.96 1022.25 1022.53 1022.79 1023.02 1023.22 1023.39
1016.17 1016.41 1016.59 1016.72 1016.82 1016.90 1016.98 1017.07 1017.17 1017.28 1017.36 1017.43 1017.46 1017.46 1017.45 1017.44 1017.46 1017.53 1017.67 1017.87 1018.13 1018.42 1018.73 1019.04 1019.32 1019.57 1019.77 1019.93 1020.07 1020.18 1020.30 1020.43 1020.60 1020.81 1021.06 1021.35 1021.67 1022.01 1022.35 1022.67 1022.96 1023.20 1023.40
1016.09 1016.32 1016.52 1016.67 1016.80 1016.91 1017.01 1017.12 1017.24 1017.36 1017.47 1017.57 1017.63 1017.66 1017.65 1017.64 1017.64 1017.65 1017.72 1017.84 1018.01 1018.23 1018.49 1018.77 1019.04 1019.29 1019.50 1019.67 1019.80 1019.90 1019.99 1020.09 1020.22 1020.40 1020.64 1020.94 1021.29 1021.67 1022.07 1022.45 1022.79 1023.09 1023.34
1016.01 1016.25 1016.47 1016.66 1016.83 1016.97 1017.11 1017.24 1017.38 1017.51 1017.63 1017.74 1017.82 1017.86 1017.88 1017.86 1017.83 1017.80 1017.80 1017.84 1017.93 1018.07 1018.26 1018.48 1018.72 1018.95 1019.14 1019.30 1019.42 1019.51 1019.57 1019.65 1019.75 1019.91 1020.14 1020.44 1020.81 1021.22 1021.66 1022.09 1022.49 1022.85 1023.16
1015.96 1016.20 1016.45 1016.68 1016.91 1017.10 1017.27 1017.43 1017.57 1017.71 1017.84 1017.95 1018.04 1018.10 1018.12 1018.11 1018.07 1018.01 1017.96 1017.92 1017.92 1017.98 1018.08 1018.23 1018.40 1018.58 1018.74 1018.87 1018.97 1019.04 1019.09 1019.15 1019.24 1019.38 1019.60 1019.89 1020.26 1020.68 1021.14 1021.60 1022.05 1022.45 1022.81
1015.94 1016.19 1016.47 1016.75 1017.02 1017.27 1017.47 1017.65 1017.80 1017.94 1018.06 1018.17 1018.27 1018.35 1018.39 1018.40 1018.35 1018.28 1018.19 1018.09 1018.02 1017.98 1017.99 1018.04 1018.13 1018.23 1018.34 1018.44 1018.51 1018.57 1018.60 1018.65 1018.73 1018.86 1019.06 1019.34 1019.69 1020.10 1020.54 1021.01 1021.47 1021.90 1022.29
1015.95 1016.21 1016.51 1016.84 1017.16 1017.45 1017.69 1017.88 1018.04 1018.17 1018.29 1018.41 1018.52 1018.62 1018.69 1018.72 1018.69 1018.62 1018.51 1018.36 1018.22 1018.10 1018.01 1017.96 1017.95 1017.97 1018.02 1018.06 1018.10 1018.14 1018.17 1018.21 1018.28 1018.40 1018.58 1018.83 1019.14 1019.51 1019.92 1020.35 1020.79 1021.21 1021.62
1015.99 1016.26 1016.59 1016.95 1017.30 1017.62 1017.89 1018.09 1018.26 1018.39 1018.51 1018.63 1018.76 1018.88 1018.99 1019.05 1019.06 1019.00 1018.89 1018.71 1018.52 1018.32 1018.13 1017.99 1017.88 1017.82 1017.79 1017.79 1017.79 1017.81 1017.84 1017.88 1017.94 1018.04 1018.20 1018.41 1018.66 1018.97 1019.31 1019.68 1020.07 1020.46 1020.85
1016.07 1016.33 1016.67 1017.05 1017.42 1017.76 1018.04 1018.25 1018.41 1018.55 1018.68 1018.81 1018.96 1019.12 1019.26 1019.37 1019.42 1019.39 1019.28 1019.09 1018.86 1018.60 1018.34 1018.11 1017.92 1017.78 1017.68 1017.62 1017.60 1017.59 1017.61 1017.65 1017.71 1017.80 1017.93 1018.09 1018.29 1018.52 1018.78 1019.07 1019.39 1019.72 1020.08
1016.15 1016.41 1016.76 1017.13 1017.51 1017.84 1018.12 1018.34 1018.50 1018.64 1018.78 1018.93 1019.10 1019.29 1019.47 1019.62 1019.71 1019.71 1019.62 1019.44 1019.19 1018.89 1018.58 1018.28 1018.02 1017.81 1017.66 1017.55 1017.49 1017.47 1017.48 1017.51 1017.57 1017.65 1017.74 1017.86 1018.01 1018.17 1018.35 1018.56 1018.80 1019.07 1019.37
1016.23 1016.49 1016.82 1017.18 1017.55 1017.87 1018.14 1018.34 1018.51 1018.65 1018.79 1018.96 1019.16 1019.38 1019.59 1019.78 1019.90 1019.93 1019.86 1019.69 1019.44 1019.13 1018.79 1018.45 1018.14 1017.88 1017.68 1017.53 1017.44 1017.39 1017.39 1017.41 1017.46 1017.52 1017.60 1017.69 1017.79 1017.90 1018.02 1018.16 1018.33 1018.53 1018.78
1016.30 1016.55 1016.87 1017.21 1017.54 1017.84 1018.09 1018.28 1018.43 1018.57 1018.72 1018.90 1019.11 1019.35 1019.59 1019.79 1019.94 1019.99 1019.95 1019.80 1019.56 1019.26 1018.91 1018.57 1018.23 1017.94 1017.71 1017.52 1017.39 1017.32 1017.28 1017.29 1017.32 1017.38 1017.44 1017.52 1017.59 1017.67 1017.76 1017.85 1017.97 1018.13 1018.33
1016.34 1016.59 1016.89 1017.21 1017.51 1017.78 1017.99 1018.16 1018.30 1018.44 1018.59 1018.76 1018.98 1019.22 1019.46 1019.67 1019.83 1019.90 1019.88 1019.76 1019.54 1019.26 1018.94 1018.60 1018.27 1017.97 1017.71 1017.49 1017.33 1017.21 1017.14 1017.11 1017.12 1017.16 1017.22 1017.29 1017.36 1017.44 1017.52 1017.60 1017.71 1017.84 1018.00
1016.34 1016.61 1016.90 1017.18 1017.46 1017.69 1017.88 1018.02 1018.14 1018.26 1018.40 1018.57 1018.77 1019.00 1019.23 1019.43 1019.59 1019.67 1019.66 1019.57 1019.39 1019.15 1018.87 1018.56 1018.25 1017.95 1017.68 1017.44 1017.23 1017.07 1016.96 1016.88 1016.86 1016.87 1016.92 1016.99 1017.08 1017.17 1017.27 1017.36 1017.47 1017.59 1017.74
1016.30 1016.58 1016.87 1017.15 1017.39 1017.59 1017.75 1017.86 1017.96 1018.06 1018.18 1018.33 1018.52 1018.72 1018.93 1019.11 1019.26 1019.34 1019.34 1019.28 1019.15 1018.96 1018.72 1018.47 1018.19 1017.91 1017.64 1017.38 1017.14 1016.92 1016.75 1016.62 1016.54 1016.52 1016.55 1016.62 1016.72 1016.83 1016.95 1017.08 1017.21 1017.34 1017.49
1016.21 1016.51 1016.80 1017.07 1017.30 1017.48 1017.61 1017.70 1017.78 1017.86 1017.96 1018.08 1018.23 1018.41 1018.59 1018.74 1018.87 1018.95 1018.97 1018.93 1018.84 1018.72 1018.54 1018.35 1018.12 1017.88 1017.61 1017.34 1017.06 1016.79 1016.56 1016.36 1016.22 1016.15 1016.15 1016.20 1016.29 1016.42 1016.57 1016.72 1016.87 1017.03 1017.18
1016.04 1016.37 1016.68 1016.95 1017.17 1017.34 1017.45 1017.53 1017.58 1017.64 1017.72 1017.82 1017.94 1018.08 1018.23 1018.36 1018.47 1018.54 1018.57 1018.57 1018.53 1018.46 1018.35 1018.22 1018.05 1017.85 1017.60 1017.33 1017.02 1016.72 1016.42 1016.16 1015.95 1015.82 1015.76 1015.78 1015.85 1015.97 1016.11 1016.28 1016.44 1016.59 1016.75
1015.78 1016.14 1016.47 1016.76 1016.98 1017.14 1017.24 1017.30 1017.35 1017.39 1017.45 1017.53 1017.63 1017.75 1017.86 1017.97 1018.07 1018.13 1018.18 1018.20 1018.20 1018.18 1018.14 1018.07 1017.96 1017.81 1017.59 1017.33 1017.02 1016.68 1016.34 1016.02 1015.76 1015.55 1015.43 1015.39 1015.41 1015.49 1015.61 1015.75 1015.90 1016.04 1016.19
1015.42 1015.82 1016.17 1016.47 1016.69 1016.85 1016.96 1017.02 1017.06 1017.09 1017.14 1017.21 1017.29 1017.39 1017.49 1017.58 1017.66 1017.72 1017.77 1017.81 1017.84 1017.87 1017.88 1017.87 1017.82 1017.71 1017.54 1017.30 1017.00 1016.66 1016.29 1015.94 1015.62 1015.36 1015.17 1015.05 1015.01 1015.02 1015.08 1015.17 1015.27 1015.38 1015.51
1014.96 1015.38 1015.76 1016.06 1016.30 1016.47 1016.58 1016.65 1016.69 1016.73 1016.78 1016.84 1016.92 1017.00 1017.09 1017.16 1017.23 1017.28 1017.33 1017.38 1017.42 1017.47 1017.52 1017.55 1017.55 1017.49 1017.37 1017.17 1016.91 1016.58 1016.22 1015.85 1015.51 1015.20 1014.95 1014.76 1014.64 1014.57 1014.55 1014.56 1014.59 1014.65 1014.73
1014.43 1014.86 1015.24 1015.56 1015.81 1015.99 1016.11 1016.19 1016.25 1016.30 1016.35 1016.42 1016.50 1016.58 1016.65 1016.71 1016.76 1016.79 1016.83 1016.86 1016.91 1016.96 1017.02 1017.08 1017.10 1017.09 1017.01 1016.87 1016.65 1016.37 1016.05 1015.70 1015.35 1015.02 1014.73 1014.49 1014.29 1014.14 1014.03 1013.95 1013.90 1013.89 1013.91
1013.86 1014.28 1014.66 1014.99 1015.24 1015.44 1015.58 1015.68 1015.75 1015.82 1015.89 1015.96 1016.04 1016.11 1016.17 1016.21 1016.23 1016.25 1016.25 1016.26 1016.28 1016.31 1016.36 1016.41 1016.46 1016.47 1016.43 1016.34 1016.19 1015.97 1015.71 1015.41 1015.09 1014.77 1014.47 1014.19 1013.94 1013.72 1013.53 1013.36 1013.24 1013.15 1013.11
1013.28 1013.69 1014.06 1014.38 1014.65 1014.86 1015.02 1015.15 1015.24 1015.33 1015.41 1015.49 1015.56 1015.62 1015.66 1015.68 1015.67 1015.64 1015.60 1015.56 1015.53 1015.53 1015.54 1015.57 1015.61 1015.63 1015.63 1015.59 1015.50 1015.35 1015.16 1014.93 1014.67 1014.39 1014.11 1013.83 1013.56 1013.29 1013.05 1012.82 1012.63 1012.47 1012.38
1012.74 1013.12 1013.48 1013.80 1014.08 1014.31 1014.49 1014.64 1014.76 1014.86 1014.96 1015.03 1015.09 1015.13 1015.15 1015.12 1015.07 1014.99 1014.90 1014.80 1014.72 1014.66 1014.62 1014.61 1014.62 1014.65 1014.66 1014.65 1014.61 1014.54 1014.42 1014.27 1014.09 1013.88 1013.64 1013.39 1013.13 1012.86 1012.59 1012.33 1012.09 1011.89 1011.75
1012.26 1012.61 1012.96 1013.28 1013.57 1013.83 1014.04 1014.21 1014.35 1014.47 1014.55 1014.62 1014.66 1014.66 1014.64 1014.57 1014.47 1014.33 1014.18 1014.03 1013.88 1013.76 1013.67 1013.61 1013.59 1013.59 1013.60 1013.61 1013.62 1013.60 1013.55 1013.48 1013.37 1013.23 1013.06 1012.86 1012.64 1012.40 1012.14 1011.88 1011.62 1011.40 1011.22
Thickness
5752 5750 5747 5745 5744 5743 5741 5740 5739 5738 5738 5737 5738 5740 5740 5740 5740 5739 5736 5735 5733 5733 5731 5729 5728 5726 5725 5724 5723 5722 5721 5720 5719 5718 5717 5716 5715 5714 5713 5713 5712 5712 5711
5751 5748 5746 5744 5743 5742 5740 5739 5738 5737 5736 5736 5737 5737 5738 5738 5738 5737 5735 5733 5732 5732 5731 5729 5728 5726 5725 5724 5723 5721 5720 5719 5719 5717 5716 5715 5714 5713 5712 5711 5711 5710 5710
5749 5747 5745 5743 5741 5740 5739 5738 5737 5736 5735 5736 5735 5735 5736 5736 5736 5736 5734 5733 5732 5731 5730 5729 5727 5726 5725 5723 5722 5721 5719 5718 5717 5716 5715 5714 5713 5712 5711 5710 5710 5709 5709
5747 5746 5744 5742 5741 5740 5738 5737 5736 5734 5734 5733 5733 5734 5735 5735 5735 5735 5734 5733 5733 5732 5730 5728 5727 5726 5724 5723 5722 5720 5719 5718 5717 5716 5714 5713 5712 5711 5710 5709 5708 5708 5708
5746 5744 5743 5740 5740 5739 5738 5736 5733 5732 5730 5730 5731 5733 5735 5736 5736 5736 5735 5734 5733 5732 5730 5728 5727 5725 5723 5723 5721 5720 5718 5718 5716 5715 5714 5713 5711 5710 5709 5708 5707 5707 5706
5744 5743 5741 5740 5739 5738 5735 5733 5731 5731 5730 5730 5732 5733 5734 5736 5736 5734 5734 5733 5732 5731 5730 5728 5725 5724 5722 5722 5721 5719 5718 5716 5716 5714 5713 5712 5711 5709 5708 5707 5706 5706 5705
5743 5742 5741 5739 5738 5736 5733 5732 5730 5730 5730 5730 5728 5728 5732 5736 5735 5733 5732 5731 5730 5729 5728 5726 5724 5723 5722 5720 5719 5718 5717 5716 5715 5713 5712 5711 5710 5708 5707 5706 5705 5704 5704
5742 5742 5739 5738 5737 5735 5732 5731 5729 5727 5728 5729 5724 5721 5721 5724 5728 5732 5729 5727 5727 5726 5725 5724 5722 5721 5720 5719 5717 5716 5715 5714 5712 5711 5710 5710 5709 5708 5706 5705 5705 5704 5703
5741 5741 5739 5738 5736 5735 5732 5730 5728 5726 5723 5725 5726 5720 5713 5709 5716 5723 5725 5724 5723 5722 5722 5721 5720 5719 5718 5717 5715 5713 5712 5711 5710 5709 5708 5707 5707 5706 5705 5704 5704 5703 5702
5741 5741 5739 5738 5736 5735 5732 5730 5728 5727 5723 5720 5722 5722 5719 5715 5708 5709 5715 5719 5720 5719 5718 5718 5717 5715 5714 5713 5711 5709 5708 5707 5706 5705 5705 5705 5705 5704 5704 5703 5702 5701 5701
5741 5741 5739 5737 5735 5733 5731 5729 5727 5725 5723 5719 5718 5718 5717 5716 5714 5706 5704 5708 5713 5716 5716 5715 5713 5712 5711 5709 5706 5705 5704 5702 5702 5701 5701 5701 5701 5702 5702 5702 5701 5700 5700
5741 5740 5738 5736 5734 5732 5730 5728 5726 5723 5721 5719 5716 5716 5713 5711 5708 5706 5702 5703 5704 5709 5713 5712 5710 5708 5706 5704 5702 5700 5699 5698 5697 5697 5697 5697 5698 5698 5699 5699 5699 5699 5698
5740 5739 5739 5735 5733 5731 5729 5727 5724 5721 5720 5717 5714 5713 5712 5711 5710 5707 5702 5700 5700 5704 5707 5708 5708 5705 5703 5700 5697 5695 5694 5692 5692 5691 5691 5692 5693 5694 5695 5696 5696 5697 5696
5742 5739 5737 5734 5732 5730 5728 5725 5723 5720 5718 5715 5713 5711 5709 5709 5709 5706 5701 5696 5692 5695 5699 5701 5703 5702 5699 5696 5693 5691 5689 5688 5687 5686 5686 5687 5688 5689 5690 5691 5692 5693 5693
5742 5739 5736 5733 5730 5728 5726 5723 5720 5718 5716 5713 5711 5709 5707 5706 5706 5704 5701 5697 5690 5684 5686 5693 5695 5697 5695 5692 5689 5687 5686 5684 5683 5682 5682 5683 5683 5684 5685 5686 5687 5688 5688
5740 5736 5734 5731 5728 5726 5723 5720 5718 5716 5713 5711 5709 5706 5704 5703 5702 5701 5698 5696 5692 5686 5681 5687 5689 5692 5690 5688 5686 5684 5682 5681 5680 5679 5679 5679 5679 5679 5680 5680 5681 5682 5683
5736 5734 5731 5728 5725 5723 5720 5717 5715 5713 5710 5708 5706 5704 5701 5700 5697 5695 5694 5692 5689 5686 5679 5681 5685 5686 5685 5683 5681 5680 5678 5678 5677 5677 5677 5676 5676 5675 5675 5675 5676 5676 5677
5734 5731 5729 5726 5723 5721 5718 5715 5711 5711 5708 5705 5703 5701 5698 5697 5694 5691 5689 5686 5684 5683 5678 5675 5676 5678 5678 5679 5678 5676 5675 5675 5675 5675 5675 5674 5673 5672 5671 5671 5671 5671 5672
5731 5728 5726 5722 5720 5718 5716 5713 5709 5707 5705 5703 5701 5698 5695 5692 5689 5687 5685 5682 5681 5680 5677 5673 5672 5673 5674 5675 5674 5672 5671 5670 5670 5671 5672 5671 5670 5669 5667 5667 5667 5667 5667
5728 5725 5723 5720 5717 5715 5712 5710 5707 5704 5702 5700 5698 5695 5693 5690 5687 5684 5681 5679 5677 5673 5671 5669 5668 5668 5668 5670 5669 5665 5663 5664 5664 5666 5666 5666 5666 5665 5664 5663 5663 5662 5662
5726 5723 5720 5716 5714 5711 5709 5707 5703 5701 5698 5695 5694 5692 5690 5688 5686 5682 5679 5675 5672 5668 5665 5663 5662 5662 5661 5661 5659 5659 5656 5657 5658 5659 5659 5660 5661 5660 5659 5658 5658 5658 5658
5723 5719 5716 5713 5710 5709 5707 5703 5700 5697 5694 5691 5689 5687 5686 5683 5682 5679 5676 5672 5668 5663 5660 5657 5655 5654 5654 5654 5654 5651 5648 5647 5646 5650 5650 5651 5652 5652 5654 5655 5656 5656 5655
5718 5714 5711 5708 5705 5703 5700 5697 5693 5690 5688 5686 5684 5682 5681 5682 5678 5675 5672 5668 5664 5660 5656 5653 5650 5649 5648 5648 5646 5643 5641 5640 5639 5642 5640 5640 5643 5644 5648 5649 5651 5652 5651
5713 5709 5706 5703 5700 5697 5692 5689 5686 5683 5681 5680 5679 5677 5675 5673 5672 5669 5667 5664 5661 5659 5656 5651 5649 5648 5647 5645 5642 5638 5636 5635 5636 5637 5635 5633 5637 5638 5642 5644 5645 5645 5645
5707 5703 5700 5697 5693 5690 5686 5681 5677 5676 5674 5673 5673 5672 5670 5668 5667 5663 5659 5657 5656 5655 5654 5653 5651 5648 5645 5642 5637 5632 5629 5626 5627 5630 5631 5629 5631 5633 5635 5637 5638 5639 5639
5699 5696 5693 5690 5688 5685 5681 5676 5670 5669 5667 5666 5666 5666 5664 5662 5661 5657 5653 5651 5648 5648 5647 5646 5644 5642 5639 5637 5633 5628 5624 5620 5620 5622 5625 5622 5623 5624 5624 5629 5631 5631 5632